Location: Frankfurt+(oder)
(51.7984°N, 12.2168°E)
Time: 19:37:41
(UTC+01:00)

ISS - Pass Details

Date: 14 November 2017
Orbit: 401 x 407 km, 51.6° (Epoch: 25 November)

Event Time Altitude Azimuth Distance (km) Brightness Sun altitude
Exits shadow 05:45:37 28° 231° (SW) 798 -2.7 -15.8°
Maximum altitude 05:46:12 30° 209° (SSW) 755 -2.7 -15.7°
Drops below altitude 10° 05:49:06 10° 147° (SSE) 1,451 -0.4 -15.2°
Sets 05:51:19 0° 136° (SE) 2,307 1.0 -14.9°
